owner,sensor,date,latitude,longitude,relative_humidity,qcFlag 
DISL,ioos:station:DISL:PPTA:1,2014-09-01T00:00:00Z,30.2791,-87.5561,72.55,1111122 
DISL,ioos:station:DISL:PPTA:1,2014-09-01T00:30:00Z,30.2791,-87.5561,75.23,1111122 
DISL,ioos:station:DISL:PPTA:1,2014-09-01T01:00:00Z,30.2791,-87.5561,74.58,1111122 
DISL,ioos:station:DISL:PPTA:1,2014-09-01T01:30:00Z,30.2791,-87.5561,75.09,1111122 
DISL,ioos:station:DISL:PPTA:1,2014-09-01T02:00:00Z,30.2791,-87.5561,74.65,1111122 
DISL,ioos:station:DISL:PPTA:1,2014-09-01T02:30:00Z,30.2791,-87.5561,74.72,1111122 
DISL,ioos:station:DISL:PPTA:1,2014-09-01T03:00:00Z,30.2791,-87.5561,74.88,1111122 
DISL,ioos:station:DISL:PPTA:1,2014-09-01T03:30:00Z,30.2791,-87.5561,75.19,1111122 
DISL,ioos:station:DISL:PPTA:1,2014-09-01T04:00:00Z,30.2791,-87.5561,74.85,1111122 
DISL,ioos:station:DISL:PPTA:1,2014-09-01T04:30:00Z,30.2791,-87.5561,74.13,1111122 
DISL,ioos:station:DISL:PPTA:1,2014-09-01T05:00:00Z,30.2791,-87.5561,73.86,1111122 
DISL,ioos:station:DISL:PPTA:1,2014-09-01T05:30:00Z,30.2791,-87.5561,76.14,1111122 
DISL,ioos:station:DISL:PPTA:1,2014-09-01T06:00:00Z,30.2791,-87.5561,76.58,1111122 
DISL,ioos:station:DISL:PPTA:1,2014-09-01T06:30:00Z,30.2791,-87.5561,77.16,1111122 
DISL,ioos:station:DISL:PPTA:1,2014-09-01T07:00:00Z,30.2791,-87.5561,77.51,1111122 
DISL,ioos:station:DISL:PPTA:1,2014-09-01T07:30:00Z,30.2791,-87.5561,72.53,1111122 
DISL,ioos:station:DISL:PPTA:1,2014-09-01T08:00:00Z,30.2791,-87.5561,78.02,1111122 
DISL,ioos:station:DISL:PPTA:1,2014-09-01T08:30:00Z,30.2791,-87.5561,77.47,1111122 
DISL,ioos:station:DISL:PPTA:1,2014-09-01T09:00:00Z,30.2791,-87.5561,76.89,1111122 
DISL,ioos:station:DISL:PPTA:1,2014-09-01T09:30:00Z,30.2791,-87.5561,75.43,1111122 
DISL,ioos:station:DISL:PPTA:1,2014-09-01T10:00:00Z,30.2791,-87.5561,75.46,1111122 
DISL,ioos:station:DISL:PPTA:1,2014-09-01T10:30:00Z,30.2791,-87.5561,77.95,1111122 
DISL,ioos:station:DISL:PPTA:1,2014-09-01T11:00:00Z,30.2791,-87.5561,75.97,1111122 
DISL,ioos:station:DISL:PPTA:1,2014-09-01T11:30:00Z,30.2791,-87.5561,76.93,1111122 
DISL,ioos:station:DISL:PPTA:1,2014-09-01T12:00:00Z,30.2791,-87.5561,77.06,1111122 
DISL,ioos:station:DISL:PPTA:1,2014-09-01T12:30:00Z,30.2791,-87.5561,74.61,1111122 
DISL,ioos:station:DISL:PPTA:1,2014-09-01T13:00:00Z,30.2791,-87.5561,74.38,1111122 
DISL,ioos:station:DISL:PPTA:1,2014-09-01T13:30:00Z,30.2791,-87.5561,71.65,1111122 
DISL,ioos:station:DISL:PPTA:1,2014-09-01T14:00:00Z,30.2791,-87.5561,70.58,1111122 
DISL,ioos:station:DISL:PPTA:1,2014-09-01T14:30:00Z,30.2791,-87.5561,68.09,1111122 
DISL,ioos:station:DISL:PPTA:1,2014-09-01T15:00:00Z,30.2791,-87.5561,67.29,1111122 
DISL,ioos:station:DISL:PPTA:1,2014-09-01T15:30:00Z,30.2791,-87.5561,67.76,1111122 
DISL,ioos:station:DISL:PPTA:1,2014-09-01T16:00:00Z,30.2791,-87.5561,66.52,1111122 
DISL,ioos:station:DISL:PPTA:1,2014-09-01T16:30:00Z,30.2791,-87.5561,64.37,1111122 
DISL,ioos:station:DISL:PPTA:1,2014-09-01T17:00:00Z,30.2791,-87.5561,66.34,1111122 
DISL,ioos:station:DISL:PPTA:1,2014-09-01T17:30:00Z,30.2791,-87.5561,67.32,1111122 
DISL,ioos:station:DISL:PPTA:1,2014-09-01T18:00:00Z,30.2791,-87.5561,68.35,1111122 
DISL,ioos:station:DISL:PPTA:1,2014-09-01T18:30:00Z,30.2791,-87.5561,67.88,1111122 
DISL,ioos:station:DISL:PPTA:1,2014-09-01T19:00:00Z,30.2791,-87.5561,67.74,1111122 
DISL,ioos:station:DISL:PPTA:1,2014-09-01T19:30:00Z,30.2791,-87.5561,67.79,1111122 
DISL,ioos:station:DISL:PPTA:1,2014-09-01T20:00:00Z,30.2791,-87.5561,68.81,1111122 
DISL,ioos:station:DISL:PPTA:1,2014-09-01T20:30:00Z,30.2791,-87.5561,69.16,1111122 
DISL,ioos:station:DISL:PPTA:1,2014-09-01T21:00:00Z,30.2791,-87.5561,67.71,1111122 
DISL,ioos:station:DISL:PPTA:1,2014-09-01T21:30:00Z,30.2791,-87.5561,69.82,1111122 
DISL,ioos:station:DISL:PPTA:1,2014-09-01T22:00:00Z,30.2791,-87.5561,71.15,1111122 
DISL,ioos:station:DISL:PPTA:1,2014-09-01T22:30:00Z,30.2791,-87.5561,69.65,1111122 
DISL,ioos:station:DISL:PPTA:1,2014-09-01T23:00:00Z,30.2791,-87.5561,70.91,1111122 
DISL,ioos:station:DISL:PPTA:1,2014-09-01T23:30:00Z,30.2791,-87.5561,73.82,1111122 
DISL,ioos:station:DISL:PPTA:1,2014-09-02T00:00:00Z,30.2791,-87.5561,71.86,1111122 
DISL,ioos:station:DISL:PPTA:1,2014-09-02T00:30:00Z,30.2791,-87.5561,71.82,1111122 
DISL,ioos:station:DISL:PPTA:1,2014-09-02T01:00:00Z,30.2791,-87.5561,73.02,1111122 
DISL,ioos:station:DISL:PPTA:1,2014-09-02T01:30:00Z,30.2791,-87.5561,75.33,1111122 
DISL,ioos:station:DISL:PPTA:1,2014-09-02T02:00:00Z,30.2791,-87.5561,74.21,1111122 
DISL,ioos:station:DISL:PPTA:1,2014-09-02T02:30:00Z,30.2791,-87.5561,77.51,1111122 
DISL,ioos:station:DISL:PPTA:1,2014-09-02T03:00:00Z,30.2791,-87.5561,74.14,1111122 
DISL,ioos:station:DISL:PPTA:1,2014-09-02T03:30:00Z,30.2791,-87.5561,74.76,1111122 
DISL,ioos:station:DISL:PPTA:1,2014-09-02T04:00:00Z,30.2791,-87.5561,73.31,1111122 
DISL,ioos:station:DISL:PPTA:1,2014-09-02T04:30:00Z,30.2791,-87.5561,75.09,1111122 
DISL,ioos:station:DISL:PPTA:1,2014-09-02T05:00:00Z,30.2791,-87.5561,74.3,1111122 
DISL,ioos:station:DISL:PPTA:1,2014-09-02T05:30:00Z,30.2791,-87.5561,76.69,1111122 
DISL,ioos:station:DISL:PPTA:1,2014-09-02T06:00:00Z,30.2791,-87.5561,77.16,1111122 
DISL,ioos:station:DISL:PPTA:1,2014-09-02T06:30:00Z,30.2791,-87.5561,77.61,1111122 
DISL,ioos:station:DISL:PPTA:1,2014-09-02T07:00:00Z,30.2791,-87.5561,77.68,1111122 
DISL,ioos:station:DISL:PPTA:1,2014-09-02T07:30:00Z,30.2791,-87.5561,75.87,1111122 
DISL,ioos:station:DISL:PPTA:1,2014-09-02T08:00:00Z,30.2791,-87.5561,74.88,1111122 
DISL,ioos:station:DISL:PPTA:1,2014-09-02T08:30:00Z,30.2791,-87.5561,75.22,1111122 
DISL,ioos:station:DISL:PPTA:1,2014-09-02T09:00:00Z,30.2791,-87.5561,76.31,1111122 
DISL,ioos:station:DISL:PPTA:1,2014-09-02T09:30:00Z,30.2791,-87.5561,74.78,1111122 
DISL,ioos:station:DISL:PPTA:1,2014-09-02T10:00:00Z,30.2791,-87.5561,75.29,1111122 
DISL,ioos:station:DISL:PPTA:1,2014-09-02T10:30:00Z,30.2791,-87.5561,75.56,1111122 
DISL,ioos:station:DISL:PPTA:1,2014-09-02T11:00:00Z,30.2791,-87.5561,76.01,1111122 
DISL,ioos:station:DISL:PPTA:1,2014-09-02T11:30:00Z,30.2791,-87.5561,76.58,1111122 
DISL,ioos:station:DISL:PPTA:1,2014-09-02T12:00:00Z,30.2791,-87.5561,75.49,1111122 
DISL,ioos:station:DISL:PPTA:1,2014-09-02T12:30:00Z,30.2791,-87.5561,73.65,1111122 
DISL,ioos:station:DISL:PPTA:1,2014-09-02T13:00:00Z,30.2791,-87.5561,68.76,1111122 
DISL,ioos:station:DISL:PPTA:1,2014-09-02T13:30:00Z,30.2791,-87.5561,68.29,1111122 
DISL,ioos:station:DISL:PPTA:1,2014-09-02T14:00:00Z,30.2791,-87.5561,65.45,1111122 
DISL,ioos:station:DISL:PPTA:1,2014-09-02T14:30:00Z,30.2791,-87.5561,66.01,1111122 
DISL,ioos:station:DISL:PPTA:1,2014-09-02T15:00:00Z,30.2791,-87.5561,64.88,1111122 
DISL,ioos:station:DISL:PPTA:1,2014-09-02T15:30:00Z,30.2791,-87.5561,64.84,1111122 
DISL,ioos:station:DISL:PPTA:1,2014-09-02T16:00:00Z,30.2791,-87.5561,65.85,1111122 
DISL,ioos:station:DISL:PPTA:1,2014-09-02T16:30:00Z,30.2791,-87.5561,64.76,1111122 
DISL,ioos:station:DISL:PPTA:1,2014-09-02T17:00:00Z,30.2791,-87.5561,65.37,1111122 
DISL,ioos:station:DISL:PPTA:1,2014-09-02T17:30:00Z,30.2791,-87.5561,63.53,1111122 
DISL,ioos:station:DISL:PPTA:1,2014-09-02T18:00:00Z,30.2791,-87.5561,64.83,1111122 
DISL,ioos:station:DISL:PPTA:1,2014-09-02T18:30:00Z,30.2791,-87.5561,66.0,1111122 
DISL,ioos:station:DISL:PPTA:1,2014-09-02T19:00:00Z,30.2791,-87.5561,62.7,1111122 
DISL,ioos:station:DISL:PPTA:1,2014-09-02T19:30:00Z,30.2791,-87.5561,64.02,1111122 
DISL,ioos:station:DISL:PPTA:1,2014-09-02T20:00:00Z,30.2791,-87.5561,65.18,1111122 
DISL,ioos:station:DISL:PPTA:1,2014-09-02T20:30:00Z,30.2791,-87.5561,67.21,1111122 
DISL,ioos:station:DISL:PPTA:1,2014-09-02T21:00:00Z,30.2791,-87.5561,66.78,1111122 
DISL,ioos:station:DISL:PPTA:1,2014-09-02T21:30:00Z,30.2791,-87.5561,69.21,1111122 
DISL,ioos:station:DISL:PPTA:1,2014-09-02T22:00:00Z,30.2791,-87.5561,69.18,1111122 
DISL,ioos:station:DISL:PPTA:1,2014-09-02T22:30:00Z,30.2791,-87.5561,68.32,1111122 
DISL,ioos:station:DISL:PPTA:1,2014-09-02T23:00:00Z,30.2791,-87.5561,71.19,1111122 
DISL,ioos:station:DISL:PPTA:1,2014-09-02T23:30:00Z,30.2791,-87.5561,69.95,1111122 
DISL,ioos:station:DISL:PPTA:1,2014-09-03T00:00:00Z,30.2791,-87.5561,71.24,1111122 
DISL,ioos:station:DISL:PPTA:1,2014-09-03T00:30:00Z,30.2791,-87.5561,71.48,1111122 
DISL,ioos:station:DISL:PPTA:1,2014-09-03T01:00:00Z,30.2791,-87.5561,74.31,1111122 
DISL,ioos:station:DISL:PPTA:1,2014-09-03T01:30:00Z,30.2791,-87.5561,74.31,1111122 
DISL,ioos:station:DISL:PPTA:1,2014-09-03T02:00:00Z,30.2791,-87.5561,75.78,1111122 
DISL,ioos:station:DISL:PPTA:1,2014-09-03T02:30:00Z,30.2791,-87.5561,76.04,1111122 
DISL,ioos:station:DISL:PPTA:1,2014-09-03T03:00:00Z,30.2791,-87.5561,77.1,1111122 
DISL,ioos:station:DISL:PPTA:1,2014-09-03T03:30:00Z,30.2791,-87.5561,77.71,1111122 
DISL,ioos:station:DISL:PPTA:1,2014-09-03T04:00:00Z,30.2791,-87.5561,79.07,1111122 
DISL,ioos:station:DISL:PPTA:1,2014-09-03T04:30:00Z,30.2791,-87.5561,82.8,1111122 
DISL,ioos:station:DISL:PPTA:1,2014-09-03T05:00:00Z,30.2791,-87.5561,83.0,1111122 
DISL,ioos:station:DISL:PPTA:1,2014-09-03T05:30:00Z,30.2791,-87.5561,83.7,1111122 
DISL,ioos:station:DISL:PPTA:1,2014-09-03T06:00:00Z,30.2791,-87.5561,83.2,1111122 
DISL,ioos:station:DISL:PPTA:1,2014-09-03T06:30:00Z,30.2791,-87.5561,81.0,1111122 
DISL,ioos:station:DISL:PPTA:1,2014-09-03T07:00:00Z,30.2791,-87.5561,80.7,1111122 
DISL,ioos:station:DISL:PPTA:1,2014-09-03T07:30:00Z,30.2791,-87.5561,78.89,1111122 
DISL,ioos:station:DISL:PPTA:1,2014-09-03T08:00:00Z,30.2791,-87.5561,78.04,1111122 
DISL,ioos:station:DISL:PPTA:1,2014-09-03T08:30:00Z,30.2791,-87.5561,80.4,1111122 
DISL,ioos:station:DISL:PPTA:1,2014-09-03T09:00:00Z,30.2791,-87.5561,84.4,1111122 
DISL,ioos:station:DISL:PPTA:1,2014-09-03T09:30:00Z,30.2791,-87.5561,91.5,1111122 
DISL,ioos:station:DISL:PPTA:1,2014-09-03T10:00:00Z,30.2791,-87.5561,87.3,1111122 
DISL,ioos:station:DISL:PPTA:1,2014-09-03T10:30:00Z,30.2791,-87.5561,85.2,1111122 
DISL,ioos:station:DISL:PPTA:1,2014-09-03T11:00:00Z,30.2791,-87.5561,82.0,1111122 
DISL,ioos:station:DISL:PPTA:1,2014-09-03T11:30:00Z,30.2791,-87.5561,83.2,1111122 
DISL,ioos:station:DISL:PPTA:1,2014-09-03T12:00:00Z,30.2791,-87.5561,84.3,1111122 
DISL,ioos:station:DISL:PPTA:1,2014-09-03T12:30:00Z,30.2791,-87.5561,82.9,1111122 
DISL,ioos:station:DISL:PPTA:1,2014-09-03T13:00:00Z,30.2791,-87.5561,81.1,1111122 
DISL,ioos:station:DISL:PPTA:1,2014-09-03T13:30:00Z,30.2791,-87.5561,74.81,1111122 
DISL,ioos:station:DISL:PPTA:1,2014-09-03T14:00:00Z,30.2791,-87.5561,72.46,1111122 
DISL,ioos:station:DISL:PPTA:1,2014-09-03T14:30:00Z,30.2791,-87.5561,67.94,1111122 
DISL,ioos:station:DISL:PPTA:1,2014-09-03T15:00:00Z,30.2791,-87.5561,63.54,1111122 
DISL,ioos:station:DISL:PPTA:1,2014-09-03T15:30:00Z,30.2791,-87.5561,61.82,1111122 
DISL,ioos:station:DISL:PPTA:1,2014-09-03T16:00:00Z,30.2791,-87.5561,62.06,1111122 
DISL,ioos:station:DISL:PPTA:1,2014-09-03T16:30:00Z,30.2791,-87.5561,57.51,1111122 
DISL,ioos:station:DISL:PPTA:1,2014-09-03T17:00:00Z,30.2791,-87.5561,56.27,1111122 
DISL,ioos:station:DISL:PPTA:1,2014-09-03T17:30:00Z,30.2791,-87.5561,57.22,1111122 
DISL,ioos:station:DISL:PPTA:1,2014-09-03T18:00:00Z,30.2791,-87.5561,60.86,1111122 
DISL,ioos:station:DISL:PPTA:1,2014-09-03T18:30:00Z,30.2791,-87.5561,62.9,1111122 
DISL,ioos:station:DISL:PPTA:1,2014-09-03T19:00:00Z,30.2791,-87.5561,63.92,1111122 
DISL,ioos:station:DISL:PPTA:1,2014-09-03T19:30:00Z,30.2791,-87.5561,68.59,1111122 
DISL,ioos:station:DISL:PPTA:1,2014-09-03T20:00:00Z,30.2791,-87.5561,69.35,1111122 
DISL,ioos:station:DISL:PPTA:1,2014-09-03T20:30:00Z,30.2791,-87.5561,69.66,1111122 
DISL,ioos:station:DISL:PPTA:1,2014-09-03T21:00:00Z,30.2791,-87.5561,67.66,1111122 
DISL,ioos:station:DISL:PPTA:1,2014-09-03T21:30:00Z,30.2791,-87.5561,65.69,1111122 
DISL,ioos:station:DISL:PPTA:1,2014-09-03T22:00:00Z,30.2791,-87.5561,70.22,1111122 
DISL,ioos:station:DISL:PPTA:1,2014-09-03T22:30:00Z,30.2791,-87.5561,70.16,1111122 
DISL,ioos:station:DISL:PPTA:1,2014-09-03T23:00:00Z,30.2791,-87.5561,69.24,1111122 
DISL,ioos:station:DISL:PPTA:1,2014-09-03T23:30:00Z,30.2791,-87.5561,69.01,1111122 
DISL,ioos:station:DISL:PPTA:1,2014-09-04T00:00:00Z,30.2791,-87.5561,71.15,1111122 
DISL,ioos:station:DISL:PPTA:1,2014-09-04T00:30:00Z,30.2791,-87.5561,69.95,1111122 
DISL,ioos:station:DISL:PPTA:1,2014-09-04T01:00:00Z,30.2791,-87.5561,70.7,1111122 
DISL,ioos:station:DISL:PPTA:1,2014-09-04T01:30:00Z,30.2791,-87.5561,72.23,1111122 
DISL,ioos:station:DISL:PPTA:1,2014-09-04T02:00:00Z,30.2791,-87.5561,70.53,1111122 
DISL,ioos:station:DISL:PPTA:1,2014-09-04T02:30:00Z,30.2791,-87.5561,72.13,1111122 
DISL,ioos:station:DISL:PPTA:1,2014-09-04T03:00:00Z,30.2791,-87.5561,72.77,1111122 
DISL,ioos:station:DISL:PPTA:1,2014-09-04T03:30:00Z,30.2791,-87.5561,74.71,1111122 
DISL,ioos:station:DISL:PPTA:1,2014-09-04T04:00:00Z,30.2791,-87.5561,75.84,1111122 
DISL,ioos:station:DISL:PPTA:1,2014-09-04T04:30:00Z,30.2791,-87.5561,77.03,1111122 
DISL,ioos:station:DISL:PPTA:1,2014-09-04T05:00:00Z,30.2791,-87.5561,77.4,1111122 
DISL,ioos:station:DISL:PPTA:1,2014-09-04T05:30:00Z,30.2791,-87.5561,84.8,1111122 
DISL,ioos:station:DISL:PPTA:1,2014-09-04T06:00:00Z,30.2791,-87.5561,85.4,1111122 
DISL,ioos:station:DISL:PPTA:1,2014-09-04T06:30:00Z,30.2791,-87.5561,85.1,1111122 
DISL,ioos:station:DISL:PPTA:1,2014-09-04T07:00:00Z,30.2791,-87.5561,87.1,1111122 
DISL,ioos:station:DISL:PPTA:1,2014-09-04T07:30:00Z,30.2791,-87.5561,88.2,1111122 
DISL,ioos:station:DISL:PPTA:1,2014-09-04T08:00:00Z,30.2791,-87.5561,91.5,1111122 
DISL,ioos:station:DISL:PPTA:1,2014-09-04T08:30:00Z,30.2791,-87.5561,93.1,1111122 
DISL,ioos:station:DISL:PPTA:1,2014-09-04T09:00:00Z,30.2791,-87.5561,92.5,1111122 
DISL,ioos:station:DISL:PPTA:1,2014-09-04T09:30:00Z,30.2791,-87.5561,92.3,1111122 
DISL,ioos:station:DISL:PPTA:1,2014-09-04T10:00:00Z,30.2791,-87.5561,91.0,1111122 
DISL,ioos:station:DISL:PPTA:1,2014-09-04T10:30:00Z,30.2791,-87.5561,93.1,1111122 
DISL,ioos:station:DISL:PPTA:1,2014-09-04T11:00:00Z,30.2791,-87.5561,93.2,1111122 
DISL,ioos:station:DISL:PPTA:1,2014-09-04T11:30:00Z,30.2791,-87.5561,73.74,1111122 
DISL,ioos:station:DISL:PPTA:1,2014-09-04T12:00:00Z,30.2791,-87.5561,85.5,1111122 
DISL,ioos:station:DISL:PPTA:1,2014-09-04T12:30:00Z,30.2791,-87.5561,90.9,1111122 
DISL,ioos:station:DISL:PPTA:1,2014-09-04T13:00:00Z,30.2791,-87.5561,87.3,1111122 
DISL,ioos:station:DISL:PPTA:1,2014-09-04T13:30:00Z,30.2791,-87.5561,83.3,1111122 
DISL,ioos:station:DISL:PPTA:1,2014-09-04T14:00:00Z,30.2791,-87.5561,81.1,1111122 
DISL,ioos:station:DISL:PPTA:1,2014-09-04T14:30:00Z,30.2791,-87.5561,73.76,1111122 
DISL,ioos:station:DISL:PPTA:1,2014-09-04T15:00:00Z,30.2791,-87.5561,67.41,1111122 
DISL,ioos:station:DISL:PPTA:1,2014-09-04T15:30:00Z,30.2791,-87.5561,75.1,1111122 
DISL,ioos:station:DISL:PPTA:1,2014-09-04T16:00:00Z,30.2791,-87.5561,76.52,1111122 
DISL,ioos:station:DISL:PPTA:1,2014-09-04T16:30:00Z,30.2791,-87.5561,73.45,1111122 
DISL,ioos:station:DISL:PPTA:1,2014-09-04T17:00:00Z,30.2791,-87.5561,72.26,1111122 
DISL,ioos:station:DISL:PPTA:1,2014-09-04T17:30:00Z,30.2791,-87.5561,74.88,1111122 
DISL,ioos:station:DISL:PPTA:1,2014-09-04T18:00:00Z,30.2791,-87.5561,71.97,1111122 
DISL,ioos:station:DISL:PPTA:1,2014-09-04T18:30:00Z,30.2791,-87.5561,72.16,1111122 
DISL,ioos:station:DISL:PPTA:1,2014-09-04T19:00:00Z,30.2791,-87.5561,72.13,1111122 
DISL,ioos:station:DISL:PPTA:1,2014-09-04T19:30:00Z,30.2791,-87.5561,72.49,1111122 
DISL,ioos:station:DISL:PPTA:1,2014-09-04T20:00:00Z,30.2791,-87.5561,70.91,1111122 
DISL,ioos:station:DISL:PPTA:1,2014-09-04T20:30:00Z,30.2791,-87.5561,71.87,1111122 
DISL,ioos:station:DISL:PPTA:1,2014-09-04T21:00:00Z,30.2791,-87.5561,74.32,1111122 
DISL,ioos:station:DISL:PPTA:1,2014-09-04T21:30:00Z,30.2791,-87.5561,73.76,1111122 
DISL,ioos:station:DISL:PPTA:1,2014-09-04T22:00:00Z,30.2791,-87.5561,73.59,1111122 
DISL,ioos:station:DISL:PPTA:1,2014-09-04T22:30:00Z,30.2791,-87.5561,70.49,1111122 
DISL,ioos:station:DISL:PPTA:1,2014-09-04T23:00:00Z,30.2791,-87.5561,69.61,1111122 
DISL,ioos:station:DISL:PPTA:1,2014-09-04T23:30:00Z,30.2791,-87.5561,72.57,1111122 
DISL,ioos:station:DISL:PPTA:1,2014-09-05T00:00:00Z,30.2791,-87.5561,76.05,1111122 
DISL,ioos:station:DISL:PPTA:1,2014-09-05T00:30:00Z,30.2791,-87.5561,77.6,1111122 
DISL,ioos:station:DISL:PPTA:1,2014-09-05T01:00:00Z,30.2791,-87.5561,79.24,1111122 
DISL,ioos:station:DISL:PPTA:1,2014-09-05T01:30:00Z,30.2791,-87.5561,82.6,1111122 
DISL,ioos:station:DISL:PPTA:1,2014-09-05T02:00:00Z,30.2791,-87.5561,82.9,1111122 
DISL,ioos:station:DISL:PPTA:1,2014-09-05T02:30:00Z,30.2791,-87.5561,85.9,1111122 
DISL,ioos:station:DISL:PPTA:1,2014-09-05T03:00:00Z,30.2791,-87.5561,85.9,1111122 
DISL,ioos:station:DISL:PPTA:1,2014-09-05T03:30:00Z,30.2791,-87.5561,86.0,1111122 
DISL,ioos:station:DISL:PPTA:1,2014-09-05T04:00:00Z,30.2791,-87.5561,88.1,1111122 
DISL,ioos:station:DISL:PPTA:1,2014-09-05T04:30:00Z,30.2791,-87.5561,88.0,1111122 
DISL,ioos:station:DISL:PPTA:1,2014-09-05T05:00:00Z,30.2791,-87.5561,88.5,1111122 
DISL,ioos:station:DISL:PPTA:1,2014-09-05T05:30:00Z,30.2791,-87.5561,88.3,1111122 
DISL,ioos:station:DISL:PPTA:1,2014-09-05T06:00:00Z,30.2791,-87.5561,90.0,1111122 
DISL,ioos:station:DISL:PPTA:1,2014-09-05T06:30:00Z,30.2791,-87.5561,89.3,1111122 
DISL,ioos:station:DISL:PPTA:1,2014-09-05T07:00:00Z,30.2791,-87.5561,89.1,1111122 
DISL,ioos:station:DISL:PPTA:1,2014-09-05T07:30:00Z,30.2791,-87.5561,91.4,1111122 
DISL,ioos:station:DISL:PPTA:1,2014-09-05T08:00:00Z,30.2791,-87.5561,92.5,1111122 
DISL,ioos:station:DISL:PPTA:1,2014-09-05T08:30:00Z,30.2791,-87.5561,90.6,1111122 
DISL,ioos:station:DISL:PPTA:1,2014-09-05T09:00:00Z,30.2791,-87.5561,91.8,1111122 
DISL,ioos:station:DISL:PPTA:1,2014-09-05T09:30:00Z,30.2791,-87.5561,91.9,1111122 
DISL,ioos:station:DISL:PPTA:1,2014-09-05T10:00:00Z,30.2791,-87.5561,91.6,1111122 
DISL,ioos:station:DISL:PPTA:1,2014-09-05T10:30:00Z,30.2791,-87.5561,91.8,1111122 
DISL,ioos:station:DISL:PPTA:1,2014-09-05T11:00:00Z,30.2791,-87.5561,91.3,1111122 
DISL,ioos:station:DISL:PPTA:1,2014-09-05T11:30:00Z,30.2791,-87.5561,90.9,1111122 
DISL,ioos:station:DISL:PPTA:1,2014-09-05T12:00:00Z,30.2791,-87.5561,90.0,1111122 
DISL,ioos:station:DISL:PPTA:1,2014-09-05T12:30:00Z,30.2791,-87.5561,89.8,1111122 
DISL,ioos:station:DISL:PPTA:1,2014-09-05T13:00:00Z,30.2791,-87.5561,85.4,1111122 
DISL,ioos:station:DISL:PPTA:1,2014-09-05T13:30:00Z,30.2791,-87.5561,88.9,1111122 
DISL,ioos:station:DISL:PPTA:1,2014-09-05T14:00:00Z,30.2791,-87.5561,91.7,1111122 
DISL,ioos:station:DISL:PPTA:1,2014-09-05T14:30:00Z,30.2791,-87.5561,91.1,1111122 
DISL,ioos:station:DISL:PPTA:1,2014-09-05T15:00:00Z,30.2791,-87.5561,90.5,1111122 
DISL,ioos:station:DISL:PPTA:1,2014-09-05T15:30:00Z,30.2791,-87.5561,89.1,1111122 
DISL,ioos:station:DISL:PPTA:1,2014-09-05T16:00:00Z,30.2791,-87.5561,88.9,1111122 
DISL,ioos:station:DISL:PPTA:1,2014-09-05T16:30:00Z,30.2791,-87.5561,86.7,1111122 
DISL,ioos:station:DISL:PPTA:1,2014-09-05T17:00:00Z,30.2791,-87.5561,83.6,1111122 
DISL,ioos:station:DISL:PPTA:1,2014-09-05T17:30:00Z,30.2791,-87.5561,79.58,1111122 
DISL,ioos:station:DISL:PPTA:1,2014-09-05T18:00:00Z,30.2791,-87.5561,75.47,1111122 
DISL,ioos:station:DISL:PPTA:1,2014-09-05T18:30:00Z,30.2791,-87.5561,71.37,1111122 
DISL,ioos:station:DISL:PPTA:1,2014-09-05T19:00:00Z,30.2791,-87.5561,71.04,1111122 
DISL,ioos:station:DISL:PPTA:1,2014-09-05T19:30:00Z,30.2791,-87.5561,73.29,1111122 
DISL,ioos:station:DISL:PPTA:1,2014-09-05T20:00:00Z,30.2791,-87.5561,68.96,1111122 
DISL,ioos:station:DISL:PPTA:1,2014-09-05T20:30:00Z,30.2791,-87.5561,68.04,1111122 
DISL,ioos:station:DISL:PPTA:1,2014-09-05T21:00:00Z,30.2791,-87.5561,69.3,1111122 
DISL,ioos:station:DISL:PPTA:1,2014-09-05T21:30:00Z,30.2791,-87.5561,71.38,1111122 
DISL,ioos:station:DISL:PPTA:1,2014-09-05T22:00:00Z,30.2791,-87.5561,70.29,1111122 
DISL,ioos:station:DISL:PPTA:1,2014-09-05T22:30:00Z,30.2791,-87.5561,67.87,1111122 
DISL,ioos:station:DISL:PPTA:1,2014-09-05T23:00:00Z,30.2791,-87.5561,69.61,1111122 
DISL,ioos:station:DISL:PPTA:1,2014-09-05T23:30:00Z,30.2791,-87.5561,73.4,1111122 
DISL,ioos:station:DISL:PPTA:1,2014-09-06T00:00:00Z,30.2791,-87.5561,77.47,1111122 
DISL,ioos:station:DISL:PPTA:1,2014-09-06T00:30:00Z,30.2791,-87.5561,78.87,1111122 
DISL,ioos:station:DISL:PPTA:1,2014-09-06T01:00:00Z,30.2791,-87.5561,80.7,1111122 
DISL,ioos:station:DISL:PPTA:1,2014-09-06T01:30:00Z,30.2791,-87.5561,81.1,1111122 
DISL,ioos:station:DISL:PPTA:1,2014-09-06T02:00:00Z,30.2791,-87.5561,81.3,1111122 
DISL,ioos:station:DISL:PPTA:1,2014-09-06T02:30:00Z,30.2791,-87.5561,83.0,1111122 
DISL,ioos:station:DISL:PPTA:1,2014-09-06T03:00:00Z,30.2791,-87.5561,83.8,1111122 
DISL,ioos:station:DISL:PPTA:1,2014-09-06T03:30:00Z,30.2791,-87.5561,85.0,1111122 
DISL,ioos:station:DISL:PPTA:1,2014-09-06T04:00:00Z,30.2791,-87.5561,84.2,1111122 
DISL,ioos:station:DISL:PPTA:1,2014-09-06T04:30:00Z,30.2791,-87.5561,83.2,1111122 
DISL,ioos:station:DISL:PPTA:1,2014-09-06T05:00:00Z,30.2791,-87.5561,85.4,1111122 
DISL,ioos:station:DISL:PPTA:1,2014-09-06T05:30:00Z,30.2791,-87.5561,86.8,1111122 
DISL,ioos:station:DISL:PPTA:1,2014-09-06T06:00:00Z,30.2791,-87.5561,86.2,1111122 
DISL,ioos:station:DISL:PPTA:1,2014-09-06T06:30:00Z,30.2791,-87.5561,85.5,1111122 
DISL,ioos:station:DISL:PPTA:1,2014-09-06T07:00:00Z,30.2791,-87.5561,89.7,1111122 
DISL,ioos:station:DISL:PPTA:1,2014-09-06T07:30:00Z,30.2791,-87.5561,89.1,1111122 
DISL,ioos:station:DISL:PPTA:1,2014-09-06T08:00:00Z,30.2791,-87.5561,91.3,1111122 
DISL,ioos:station:DISL:PPTA:1,2014-09-06T08:30:00Z,30.2791,-87.5561,88.9,1111122 
DISL,ioos:station:DISL:PPTA:1,2014-09-06T09:00:00Z,30.2791,-87.5561,85.9,1111122 
DISL,ioos:station:DISL:PPTA:1,2014-09-06T09:30:00Z,30.2791,-87.5561,88.7,1111122 
DISL,ioos:station:DISL:PPTA:1,2014-09-06T10:00:00Z,30.2791,-87.5561,85.6,1111122 
DISL,ioos:station:DISL:PPTA:1,2014-09-06T10:30:00Z,30.2791,-87.5561,83.5,1111122 
DISL,ioos:station:DISL:PPTA:1,2014-09-06T11:00:00Z,30.2791,-87.5561,84.7,1111122 
DISL,ioos:station:DISL:PPTA:1,2014-09-06T11:30:00Z,30.2791,-87.5561,86.1,1111122 
DISL,ioos:station:DISL:PPTA:1,2014-09-06T12:00:00Z,30.2791,-87.5561,85.9,1111122 
DISL,ioos:station:DISL:PPTA:1,2014-09-06T12:30:00Z,30.2791,-87.5561,86.6,1111122 
DISL,ioos:station:DISL:PPTA:1,2014-09-06T13:00:00Z,30.2791,-87.5561,85.6,1111122 
DISL,ioos:station:DISL:PPTA:1,2014-09-06T13:30:00Z,30.2791,-87.5561,86.0,1111122 
DISL,ioos:station:DISL:PPTA:1,2014-09-06T14:00:00Z,30.2791,-87.5561,84.3,1111122 
DISL,ioos:station:DISL:PPTA:1,2014-09-06T14:30:00Z,30.2791,-87.5561,79.53,1111122 
DISL,ioos:station:DISL:PPTA:1,2014-09-06T15:00:00Z,30.2791,-87.5561,77.85,1111122 
DISL,ioos:station:DISL:PPTA:1,2014-09-06T15:30:00Z,30.2791,-87.5561,73.15,1111122 
DISL,ioos:station:DISL:PPTA:1,2014-09-06T16:00:00Z,30.2791,-87.5561,68.87,1111122 
DISL,ioos:station:DISL:PPTA:1,2014-09-06T16:30:00Z,30.2791,-87.5561,61.12,1111122 
DISL,ioos:station:DISL:PPTA:1,2014-09-06T17:00:00Z,30.2791,-87.5561,66.79,1111122 
DISL,ioos:station:DISL:PPTA:1,2014-09-06T17:30:00Z,30.2791,-87.5561,65.46,1111122 
DISL,ioos:station:DISL:PPTA:1,2014-09-06T18:00:00Z,30.2791,-87.5561,67.22,1111122 
DISL,ioos:station:DISL:PPTA:1,2014-09-06T18:30:00Z,30.2791,-87.5561,65.73,1111122 
DISL,ioos:station:DISL:PPTA:1,2014-09-06T19:00:00Z,30.2791,-87.5561,64.53,1111122 
DISL,ioos:station:DISL:PPTA:1,2014-09-06T19:30:00Z,30.2791,-87.5561,62.46,1111122 
DISL,ioos:station:DISL:PPTA:1,2014-09-06T20:00:00Z,30.2791,-87.5561,62.19,1111122 
DISL,ioos:station:DISL:PPTA:1,2014-09-06T20:30:00Z,30.2791,-87.5561,62.37,1111122 
DISL,ioos:station:DISL:PPTA:1,2014-09-06T21:00:00Z,30.2791,-87.5561,63.36,1111122 
DISL,ioos:station:DISL:PPTA:1,2014-09-06T21:30:00Z,30.2791,-87.5561,65.39,1111122 
DISL,ioos:station:DISL:PPTA:1,2014-09-06T22:00:00Z,30.2791,-87.5561,66.28,1111122 
DISL,ioos:station:DISL:PPTA:1,2014-09-06T22:30:00Z,30.2791,-87.5561,66.31,1111122 
DISL,ioos:station:DISL:PPTA:1,2014-09-06T23:00:00Z,30.2791,-87.5561,66.38,1111122 
DISL,ioos:station:DISL:PPTA:1,2014-09-06T23:30:00Z,30.2791,-87.5561,68.81,1111122 
DISL,ioos:station:DISL:PPTA:1,2014-09-07T00:00:00Z,30.2791,-87.5561,70.63,1111122 